TimeCDT,TemperatureF,Dew PointF,Humidity,Sea Level PressureIn,VisibilityMPH,Wind Direction,Wind SpeedMPH,Gust SpeedMPH,PrecipitationIn,Events,Conditions,WindDirDegrees,DateUTC
12:53 AM,50.0,45.0,83,30.14,10.0,SW,8.1,-,N/A,,Clear,230,2013-04-27 05:53:00
1:53 AM,46.9,44.1,90,30.14,9.0,SSW,4.6,-,N/A,,Clear,210,2013-04-27 06:53:00
2:53 AM,46.9,44.1,90,30.13,7.0,North,-9999.0,-,N/A,,Clear,0,2013-04-27 07:53:00
3:53 AM,45.0,43.0,93,30.12,7.0,West,5.8,-,N/A,,Clear,260,2013-04-27 08:53:00
4:53 AM,43.0,41.0,93,30.12,2.5,Calm,Calm,-,N/A,,Clear,0,2013-04-27 09:53:00
5:08 AM,42.8,39.2,87,30.14,4.0,Calm,Calm,-,N/A,,Clear,0,2013-04-27 10:08:00
5:53 AM,39.0,37.9,96,30.12,6.0,Calm,Calm,-,N/A,,Clear,0,2013-04-27 10:53:00
6:00 AM,39.2,37.4,93,30.13,1.8,Calm,Calm,-,N/A,,Clear,0,2013-04-27 11:00:00
6:12 AM,37.4,37.4,100,30.13,0.5,Calm,Calm,-,N/A,Fog,Fog,0,2013-04-27 11:12:00
6:22 AM,37.4,37.4,100,30.13,2.0,West,3.5,-,N/A,,Clear,270,2013-04-27 11:22:00
6:31 AM,37.4,37.4,100,30.13,5.0,West,3.5,-,N/A,,Clear,260,2013-04-27 11:31:00
6:53 AM,37.9,37.0,97,30.12,4.0,WSW,5.8,-,N/A,,Clear,240,2013-04-27 11:53:00
7:53 AM,41.0,39.0,93,30.13,4.0,Calm,Calm,-,N/A,,Clear,0,2013-04-27 12:53:00
8:53 AM,46.9,42.1,83,30.14,6.0,Calm,Calm,-,N/A,,Haze,0,2013-04-27 13:53:00
9:53 AM,55.9,44.1,64,30.12,10.0,SSW,3.5,-,N/A,,Clear,210,2013-04-27 14:53:00
10:53 AM,64.0,45.0,50,30.09,10.0,ESE,4.6,-,N/A,,Clear,120,2013-04-27 15:53:00
11:53 AM,73.0,39.9,30,30.06,10.0,SSW,11.5,16.1,N/A,,Clear,210,2013-04-27 16:53:00
12:53 PM,75.0,36.0,24,30.04,10.0,SW,11.5,16.1,N/A,,Clear,230,2013-04-27 17:53:00
1:53 PM,78.1,34.0,20,30.00,10.0,South,12.7,18.4,N/A,,Clear,190,2013-04-27 18:53:00
2:53 PM,79.0,28.0,15,29.97,10.0,Variable,5.8,-,N/A,,Clear,0,2013-04-27 19:53:00
3:53 PM,79.0,24.1,13,29.94,10.0,Variable,3.5,-,N/A,,Clear,0,2013-04-27 20:53:00
4:53 PM,80.1,21.9,12,29.91,10.0,Calm,Calm,-,N/A,,Clear,0,2013-04-27 21:53:00
5:53 PM,81.0,21.0,11,29.89,10.0,Variable,5.8,-,N/A,,Clear,0,2013-04-27 22:53:00
6:53 PM,79.0,21.0,12,29.89,10.0,Variable,3.5,-,N/A,,Clear,0,2013-04-27 23:53:00
7:53 PM,73.0,39.0,29,29.89,10.0,SE,16.1,-,N/A,,Clear,140,2013-04-28 00:53:00
8:53 PM,66.9,39.9,37,29.89,10.0,SSE,13.8,-,N/A,,Clear,150,2013-04-28 01:53:00
9:53 PM,63.0,39.9,43,29.90,10.0,SSE,15.0,-,N/A,,Clear,160,2013-04-28 02:53:00
10:53 PM,60.1,39.9,47,29.91,10.0,South,10.4,-,N/A,,Clear,170,2013-04-28 03:53:00
11:53 PM,57.9,42.1,56,29.89,10.0,SW,8.1,-,N/A,,Clear,220,2013-04-28 04:53:00